Preview of NWS' New Version of Forecast
This preview is not operational and should not be used for support decisions.

Regional Weather Roundup (RWR)

Issued by Philadelphia/Mt Holly (PHI)

                            
000
ASUS41 KPHI 250112
RWRPHI

REGIONAL WEATHER ROUNDUP
NATIONAL WEATHER SERVICE MOUNT HOLLY NJ
900 PM EDT FRI MAY 24 2019

NOTE:  "FAIR" INDICATES FEW OR NO CLOUDS BELOW 12,000 FEET WITH NO
SIGNIFICANT WEATHER AND/OR OBSTRUCTIONS TO VISIBILITY.

 * = STATION DOES NOT REPORT PRECIPITATION (E.G. RAIN, SNOW, ETC.) 
        OR FOG.

NJZ015>026-250200-
SOUTHERN NEW JERSEY
  
CITY           SKY/WX    TMP DP  RH WIND       PRES   REMARKS
POMONA         FAIR      71  52  50 N6        30.06R                  
WILDWOOD*      FAIR      73  56  54 N3        30.06R                  
MILLVILLE      FAIR      68  58  70 W3        30.05R                  
WRIGHTSTOWN    FAIR      67  51  56 N9        30.05R                  
MOUNT HOLLY    FAIR      68  51  54 N6        30.06R                  
TRENTON        FAIR      68  50  52 N6        30.07R                  

$$
NJZ001>014-250200-
NORTHERN NEW JERSEY
  
CITY           SKY/WX    TMP DP  RH WIND       PRES   REMARKS
SUSSEX         FAIR      62  49  62 N8        30.13R                  
ANDOVER*         N/A     62  50  64 VRB5      30.12R                  
MORRISTOWN     PTCLDY    64  54  68 NE9G15    30.11R                  
NEWARK         FAIR      67  49  52 N15       30.10R                  
TETERBORO      FAIR      65  48  54 NW12G22   30.09R                  
CALDWELL       FAIR      65  49  56 VRB3      30.12R                  
SOMERVILLE     FAIR      67  49  52 N8        30.08R                  
ALLAIRE*       FAIR      68  51  54 N8        30.10R                  
TOMS RIVER*    FAIR      68  53  58 NE8       30.08R                  

$$
PAZ043-044-047-054-055-060>062-066>071-250200-
EASTERN PENNSYLVANIA
  
CITY           SKY/WX    TMP DP  RH WIND       PRES   REMARKS
PHILADELPHIA   CLOUDY    75  50  41 N14       30.06R                  
NORTH PHILA    FAIR      73  50  44 NE9       30.08R                  
BLUE BELL*     FAIR      70  50  48 N3        30.08R                  
DOYLESTOWN     FAIR      69  50  50 NE7       30.08R                  
QUAKERTOWN*    CLEAR     70  52  52 N5        30.09R                  
PERKASIE*      FAIR      66  50  55 NE6       30.10R                  
POTTSTOWN      FAIR      69  52  54 NE8       30.09R                  
LANCASTER      FAIR      73  53  49 NW8       30.07R                  
COATESVILLE    FAIR      73  52  46 CALM      30.10R                  
WEST CHESTER   FAIR      73  50  43 NE3       30.08R                  
READING        FAIR      72  54  53 N7        30.06R                  
ALLENTOWN      FAIR      71  51  49 N9        30.09R                  
QN CITY/ALNTWN FAIR      70  52  52 NE7       30.10R                  
MOUNT POCONO   FAIR      57  49  74 N12       30.13R                  
HAZLETON       FAIR      63  50  63 N7        30.16R                  
LEHIGHTON      FAIR      68  52  56 NE3       30.10R                  
WILKES BARRE   FAIR      63  50  62 NE9       30.14R                  

$$
DEZALL-MDZ008-012-015-019-020-250200-
DELAWARE AND EASTERN MARYLAND
  
CITY           SKY/WX    TMP DP  RH WIND       PRES   REMARKS
WILMINGTON     FAIR      77  51  40 CALM      30.06R                  
CHESWOLD         N/A     75  54  46 NW3       30.06R                  
GEORGETOWN     FAIR      71  58  63 CALM      30.06S                  
EASTON         PTCLDY    73  55  53 CALM      30.11R                  
STEVENSVILLE   FAIR      73  59  60 N5        30.07R                  
PATUXENT       FAIR      75  59  57 N8        30.07R                  
OCEAN CITY     FAIR      68  55  63 NW5       30.07R                  
WALLOPS ISLAND FAIR      73  56  54 NE3       30.07R                  
CAMBRIDGE      CLEAR     68  57  68 CALM      30.07R                  
SALISBURY      FAIR      70  57  63 CALM      30.06R                  

$$
PAZ001-021-NYZ056-072-MDZ011-DCZ001-250200-
OTHER NEARBY LOCATIONS
  
CITY           SKY/WX    TMP DP  RH WIND       PRES   REMARKS
HARRISBURG     MOCLDY    73  53  49 NW9       30.07R                  
STATE COLLEGE  PTCLDY    66  48  52 CALM      30.11F                  
WILLIAMSPORT   FAIR      70  50  49 CALM      30.08R                  
BINGHAMTON     FAIR      53  46  77 NE5       30.15R                  
NEW YORK CITY  FAIR      66  48  52 MISG      30.13R                  
BALTIMORE      MOCLDY    76  51  41 NW5       30.07R                  
WASHINGTON DC  FAIR      77  53  43 N9        30.07R                  

$$